^^
Station Historical Data
Daily Summary for April 11, 2017 Units:  English    Metric   Both
« Previous Day
Next Day »
Daily Weekly Monthly Yearly Custom
  High: Low: Average:
Temperature: 83.5 °F 49.0 °F 67.9 °F
Dew Point: 51.1 °F 43.7 °F 47.2 °F
Humidity: 83 % 25 % 51 %
Wind Speed: 9.8 mph 0.0 mph 1.4 mph
Wind Gust: 15.0 mph - -
Wind:- - WSW
Pressure: 30.17 in 30.05 in -
Precipitation: 0.00 in    
Historical Graphs
 
 
Tabular Data for April 11, 2017
Time Temperature Dew Point Pressure Wind Wind Speed Wind Gust Humidity Rainfall Rate (Hourly) solar Conditions
00:03 62.2 °F 45.8 °F 30.12 in Calm     55 % 0.00 in 0.0 W/m2 SCT
00:08 62.1 °F 46.2 °F 30.12 in Calm     56 % 0.00 in 0.0 W/m2 SCT
00:13 62.9 °F 46.5 °F 30.12 in Calm     55 % 0.00 in 0.0 W/m2 SCT
00:18 62.6 °F 46.2 °F 30.12 in Calm     55 % 0.00 in 0.0 W/m2 SCT
00:23 63.0 °F 46.1 °F 30.12 in Calm     54 % 0.00 in 0.0 W/m2 SCT
00:28 63.4 °F 46.5 °F 30.12 in Calm     54 % 0.00 in 0.0 W/m2 SCT
00:33 63.0 °F 46.1 °F 30.12 in Calm     54 % 0.00 in 0.0 W/m2 SCT
00:38 63.5 °F 46.6 °F 30.12 in SSW 1.8 mph 3.5 mph 54 % 0.00 in 0.0 W/m2 SCT
00:43 64.1 °F 46.1 °F 30.12 in SSW 0.9 mph 2.3 mph 52 % 0.00 in 0.0 W/m2 SCT
00:48 64.3 °F 46.3 °F 30.12 in SSW 1.0 mph 3.5 mph 52 % 0.00 in 0.0 W/m2 SCT
00:53 64.4 °F 46.4 °F 30.12 in SW 0.9 mph 3.5 mph 52 % 0.00 in 0.0 W/m2 SCT
00:58 64.2 °F 46.2 °F 30.12 in Calm     52 % 0.00 in 0.0 W/m2 SCT
01:03 63.7 °F 46.2 °F 30.12 in Calm     53 % 0.00 in 0.0 W/m2 SCT
01:08 63.0 °F 46.1 °F 30.12 in Calm     54 % 0.00 in 0.0 W/m2 SCT
01:13 62.3 °F 45.9 °F 30.11 in Calm     55 % 0.00 in 0.0 W/m2 SCT
01:18 61.3 °F 45.9 °F 30.11 in Calm     57 % 0.00 in 0.0 W/m2 SCT
01:23 60.8 °F 45.9 °F 30.11 in Calm     58 % 0.00 in 0.0 W/m2 SCT
01:28 59.9 °F 45.5 °F 30.11 in Calm     59 % 0.00 in 0.0 W/m2 SCT
01:33 59.2 °F 45.8 °F 30.11 in Calm     61 % 0.00 in 0.0 W/m2 SCT
01:38 58.8 °F 45.8 °F 30.11 in Calm     62 % 0.00 in 0.0 W/m2 SCT
01:43 58.3 °F 45.8 °F 30.11 in Calm     63 % 0.00 in 0.0 W/m2 SCT
01:48 57.9 °F 45.8 °F 30.10 in Calm     64 % 0.00 in 0.0 W/m2 SCT
01:53 57.5 °F 45.8 °F 30.10 in Calm     65 % 0.00 in 0.0 W/m2 SCT
01:58 57.1 °F 45.8 °F 30.10 in Calm     66 % 0.00 in 0.0 W/m2 SCT
02:03 57.0 °F 45.7 °F 30.10 in Calm     66 % 0.00 in 0.0 W/m2 SCT
02:08 56.7 °F 45.9 °F 30.10 in Calm     67 % 0.00 in 0.0 W/m2 SCT
02:13 56.4 °F 46.0 °F 30.10 in Calm     68 % 0.00 in 0.0 W/m2 SCT
02:18 56.2 °F 46.2 °F 30.10 in Calm     69 % 0.00 in 0.0 W/m2 SCT
02:23 55.9 °F 45.9 °F 30.10 in Calm     69 % 0.00 in 0.0 W/m2 SCT
02:28 55.6 °F 46.0 °F 30.10 in Calm     70 % 0.00 in 0.0 W/m2 SCT
02:33 55.1 °F 45.5 °F 30.10 in Calm     70 % 0.00 in 0.0 W/m2 SCT
02:38 54.7 °F 45.5 °F 30.10 in Calm     71 % 0.00 in 0.0 W/m2 SCT
02:43 54.8 °F 45.6 °F 30.10 in Calm     71 % 0.00 in 0.0 W/m2 SCT
02:48 54.6 °F 45.4 °F 30.10 in Calm     71 % 0.00 in 0.0 W/m2 SCT
02:53 54.5 °F 45.7 °F 30.10 in Calm     72 % 0.00 in 0.0 W/m2 SCT
02:58 54.5 °F 45.7 °F 30.10 in Calm     72 % 0.00 in 0.0 W/m2 SCT
03:03 54.1 °F 45.3 °F 30.09 in Calm     72 % 0.00 in 0.0 W/m2 SCT
03:08 54.0 °F 45.5 °F 30.10 in Calm     73 % 0.00 in 0.0 W/m2 SCT
03:13 53.7 °F 45.2 °F 30.10 in Calm     73 % 0.00 in 0.0 W/m2 SCT
03:18 53.1 °F 45.0 °F 30.09 in Calm     74 % 0.00 in 0.0 W/m2 SCT
03:23 53.0 °F 45.3 °F 30.09 in Calm     75 % 0.00 in 0.0 W/m2 SCT
03:28 53.1 °F 45.4 °F 30.09 in Calm     75 % 0.00 in 0.0 W/m2 SCT
03:33 53.0 °F 45.3 °F 30.10 in Calm     75 % 0.00 in 0.0 W/m2 SCT
03:38 52.8 °F 45.1 °F 30.10 in Calm     75 % 0.00 in 0.0 W/m2 SCT
03:43 52.7 °F 45.0 °F 30.10 in Calm     75 % 0.00 in 0.0 W/m2 SCT
03:48 52.7 °F 45.0 °F 30.10 in Calm     75 % 0.00 in 0.0 W/m2 SCT
03:53 52.6 °F 45.2 °F 30.10 in Calm     76 % 0.00 in 0.0 W/m2 SCT
03:58 52.8 °F 45.1 °F 30.10 in Calm     75 % 0.00 in 0.0 W/m2 SCT
04:03 52.9 °F 45.2 °F 30.10 in Calm     75 % 0.00 in 0.0 W/m2 SCT
04:08 52.5 °F 44.8 °F 30.11 in Calm     75 % 0.00 in 0.0 W/m2 SCT
04:13 52.2 °F 44.9 °F 30.11 in Calm     76 % 0.00 in 0.0 W/m2 SCT
04:18 52.1 °F 45.1 °F 30.11 in Calm     77 % 0.00 in 0.0 W/m2 SCT
04:23 52.2 °F 45.2 °F 30.11 in Calm     77 % 0.00 in 0.0 W/m2 SCT
04:28 52.3 °F 45.3 °F 30.11 in Calm     77 % 0.00 in 0.0 W/m2 SCT
04:33 52.1 °F 45.4 °F 30.11 in Calm     78 % 0.00 in 0.0 W/m2 SCT
04:38 52.0 °F 45.4 °F 30.11 in Calm     78 % 0.00 in 0.0 W/m2 SCT
04:43 51.9 °F 45.3 °F 30.11 in Calm     78 % 0.00 in 0.0 W/m2 SCT
04:48 51.9 °F 45.3 °F 30.11 in Calm     78 % 0.00 in 0.0 W/m2 SCT
04:53 51.8 °F 45.2 °F 30.11 in Calm     78 % 0.00 in 0.0 W/m2 SCT
04:58 51.6 °F 45.0 °F 30.11 in Calm     78 % 0.00 in 0.0 W/m2 SCT
05:03 51.4 °F 44.8 °F 30.11 in Calm     78 % 0.00 in 0.0 W/m2 SCT
05:08 51.4 °F 45.1 °F 30.11 in Calm     79 % 0.00 in 0.0 W/m2 SCT
05:13 51.2 °F 44.6 °F 30.12 in Calm     78 % 0.00 in 0.0 W/m2 SCT
05:18 51.0 °F 44.7 °F 30.11 in Calm     79 % 0.00 in 0.0 W/m2 SCT
05:23 50.8 °F 44.5 °F 30.11 in Calm     79 % 0.00 in 0.0 W/m2 SCT
05:28 50.6 °F 44.7 °F 30.12 in Calm     80 % 0.00 in 0.0 W/m2 SCT
05:33 50.6 °F 44.7 °F 30.12 in Calm     80 % 0.00 in 0.0 W/m2 SCT
05:38 50.5 °F 44.6 °F 30.12 in Calm     80 % 0.00 in 0.0 W/m2 SCT
05:43 50.2 °F 44.6 °F 30.12 in Calm     81 % 0.00 in 0.0 W/m2 SCT
05:48 50.2 °F 44.3 °F 30.12 in Calm     80 % 0.00 in 0.0 W/m2 SCT
05:53 49.9 °F 44.3 °F 30.12 in Calm     81 % 0.00 in 0.0 W/m2 SCT
05:58 50.2 °F 44.6 °F 30.12 in Calm     81 % 0.00 in 0.0 W/m2 SCT
06:03 49.9 °F 44.0 °F 30.12 in Calm     80 % 0.00 in 0.0 W/m2 SCT
06:08 49.6 °F 44.0 °F 30.12 in Calm     81 % 0.00 in 0.0 W/m2 SCT
06:13 49.7 °F 44.1 °F 30.12 in Calm     81 % 0.00 in 0.0 W/m2 SCT
06:18 49.4 °F 43.8 °F 30.13 in Calm     81 % 0.00 in 0.0 W/m2 SCT
06:23 49.2 °F 43.9 °F 30.13 in Calm     82 % 0.00 in 0.0 W/m2 SCT
06:28 49.3 °F 44.0 °F 30.13 in Calm     82 % 0.00 in 5.0 W/m2 SCT
06:33 49.5 °F 44.2 °F 30.12 in Calm     82 % 0.00 in 9.0 W/m2 SCT
06:39 49.3 °F 44.0 °F 30.13 in Calm     82 % 0.00 in 14.0 W/m2 SCT
06:43 49.1 °F 43.8 °F 30.14 in Calm     82 % 0.00 in 19.0 W/m2 SCT
06:48 49.0 °F 43.7 °F 30.14 in Calm     82 % 0.00 in 26.0 W/m2 SCT
06:53 49.2 °F 44.3 °F 30.13 in Calm     83 % 0.00 in 32.0 W/m2 SCT
06:58 49.5 °F 44.6 °F 30.14 in Calm     83 % 0.00 in 35.0 W/m2 SCT
07:03 49.8 °F 44.5 °F 30.14 in Calm     82 % 0.00 in 39.0 W/m2 SCT
07:08 50.2 °F 44.9 °F 30.15 in Calm     82 % 0.00 in 40.0 W/m2 SCT
07:13 50.6 °F 45.0 °F 30.14 in Calm     81 % 0.00 in 46.0 W/m2 SCT
07:18 51.0 °F 45.4 °F 30.15 in Calm     81 % 0.00 in 51.0 W/m2 FEW
07:23 51.5 °F 45.5 °F 30.15 in Calm     80 % 0.00 in 56.0 W/m2 FEW
07:28 51.8 °F 45.8 °F 30.15 in Calm     80 % 0.00 in 56.0 W/m2 SCT
07:33 52.4 °F 46.1 °F 30.16 in Calm     79 % 0.00 in 72.0 W/m2 SCT
07:38 53.0 °F 46.3 °F 30.16 in Calm     78 % 0.00 in 79.0 W/m2 SCT
07:43 53.3 °F 46.3 °F 30.15 in Calm     77 % 0.00 in 72.0 W/m2 SCT
07:48 53.7 °F 46.7 °F 30.15 in Calm     77 % 0.00 in 83.0 W/m2 SCT
07:53 54.6 °F 47.5 °F 30.16 in Calm     77 % 0.00 in 95.0 W/m2 SCT
07:58 55.1 °F 47.7 °F 30.16 in Calm     76 % 0.00 in 79.0 W/m2 BKN
08:03 55.7 °F 47.5 °F 30.16 in Calm     74 % 0.00 in 123.0 W/m2 SCT
08:08 56.4 °F 48.2 °F 30.16 in Calm     74 % 0.00 in 144.0 W/m2 FEW
08:13 56.7 °F 48.1 °F 30.16 in Calm     73 % 0.00 in 113.0 W/m2 BKN
08:18 57.3 °F 48.3 °F 30.16 in Calm     72 % 0.00 in 167.0 W/m2 SCT
08:26 57.6 °F 47.9 °F 30.16 in Calm     70 % 0.00 in 218.0 W/m2 CLR
08:31 57.9 °F 48.2 °F 30.17 in Calm     70 % 0.00 in 323.0 W/m2 CLR
08:36 58.4 °F 48.3 °F 30.17 in Calm     69 % 0.00 in 350.0 W/m2 CLR
08:41 58.9 °F 48.4 °F 30.17 in Calm     68 % 0.00 in 353.0 W/m2 CLR
08:46 59.4 °F 48.4 °F 30.16 in Calm     67 % 0.00 in 378.0 W/m2 CLR
08:51 60.1 °F 49.1 °F 30.16 in Calm     67 % 0.00 in 401.0 W/m2 CLR
08:56 60.5 °F 49.1 °F 30.16 in WSW 0.2 mph 1.2 mph 66 % 0.00 in 410.0 W/m2 CLR
09:01 61.0 °F 50.0 °F 30.15 in Calm     67 % 0.00 in 422.0 W/m2 CLR
09:02 61.1 °F 49.7 °F 30.15 in Calm     66 % 0.00 in 429.0 W/m2 CLR
09:07 61.7 °F 49.4 °F 30.15 in Calm     64 % 0.00 in 439.0 W/m2 CLR
09:12 61.9 °F 49.6 °F 30.16 in Calm     64 % 0.00 in 457.0 W/m2 CLR
09:17 62.2 °F 49.9 °F 30.15 in Calm     64 % 0.00 in 487.0 W/m2 CLR
09:22 63.1 °F 49.9 °F 30.16 in West 2.9 mph 5.8 mph 62 % 0.00 in 487.0 W/m2 CLR
09:27 64.2 °F 50.0 °F 30.15 in WNW 1.6 mph 3.5 mph 60 % 0.00 in 512.0 W/m2 CLR
09:32 64.0 °F 49.8 °F 30.15 in WSW 1.0 mph 3.5 mph 60 % 0.00 in 515.0 W/m2 CLR
09:37 64.4 °F 49.8 °F 30.15 in West 0.2 mph   59 % 0.00 in 543.0 W/m2 CLR
09:42 64.9 °F 49.8 °F 30.15 in West 1.6 mph 5.8 mph 58 % 0.00 in 559.0 W/m2 CLR
09:47 65.7 °F 50.0 °F 30.15 in West 3.4 mph 6.9 mph 57 % 0.00 in 575.0 W/m2 CLR
09:52 65.9 °F 49.8 °F 30.15 in Calm   1.2 mph 56 % 0.00 in 596.0 W/m2 CLR
09:57 66.3 °F 49.6 °F 30.16 in WSW 2.4 mph 8.1 mph 55 % 0.00 in 628.0 W/m2 CLR
10:02 66.5 °F 49.3 °F 30.16 in WSW 2.1 mph 3.5 mph 54 % 0.00 in 628.0 W/m2 CLR
10:07 67.0 °F 49.8 °F 30.16 in WSW 4.2 mph 5.8 mph 54 % 0.00 in 631.0 W/m2 CLR
10:12 67.1 °F 49.9 °F 30.15 in SW 2.1 mph 3.5 mph 54 % 0.00 in 652.0 W/m2 CLR
10:17 67.3 °F 49.6 °F 30.16 in SSW 5.1 mph 9.2 mph 53 % 0.00 in 657.0 W/m2 CLR
10:22 67.4 °F 50.2 °F 30.16 in SSW 0.7 mph 4.0 mph 54 % 0.00 in 682.0 W/m2 CLR
10:27 68.1 °F 50.3 °F 30.15 in West 2.2 mph 9.0 mph 53 % 0.00 in 682.0 W/m2 CLR
10:32 68.5 °F 50.2 °F 30.15 in WNW 4.7 mph 9.2 mph 52 % 0.00 in 712.0 W/m2 CLR
10:37 68.8 °F 49.9 °F 30.15 in WSW 4.4 mph 9.2 mph 51 % 0.00 in 726.0 W/m2 CLR
10:42 69.1 °F 50.2 °F 30.15 in West 5.1 mph 10.4 mph 51 % 0.00 in 737.0 W/m2 CLR
10:47 69.6 °F 50.1 °F 30.15 in West 4.0 mph 11.5 mph 50 % 0.00 in 742.0 W/m2 CLR
10:52 69.9 °F 49.9 °F 30.15 in WSW 5.2 mph 6.0 mph 49 % 0.00 in 768.0 W/m2 CLR
10:57 70.1 °F 49.5 °F 30.15 in West 6.4 mph 10.0 mph 48 % 0.00 in 773.0 W/m2 CLR
11:02 70.6 °F 50.0 °F 30.15 in WSW 7.4 mph 9.0 mph 48 % 0.00 in 780.0 W/m2 CLR
11:07 70.9 °F 50.2 °F 30.15 in NW 5.6 mph 8.1 mph 48 % 0.00 in 802.0 W/m2 CLR
11:12 71.6 °F 50.9 °F 30.15 in WSW 3.7 mph 7.0 mph 48 % 0.00 in 795.0 W/m2 CLR
11:17 71.8 °F 50.5 °F 30.15 in West 1.2 mph 5.8 mph 47 % 0.00 in 805.0 W/m2 CLR
11:22 71.8 °F 51.0 °F 30.15 in Calm   1.2 mph 48 % 0.00 in 798.0 W/m2 CLR
11:27 72.7 °F 50.1 °F 30.15 in SW 4.3 mph 8.1 mph 45 % 0.00 in 805.0 W/m2 CLR
11:32 72.5 °F 49.9 °F 30.14 in WSW 2.5 mph 8.1 mph 45 % 0.00 in 823.0 W/m2 CLR
11:37 72.8 °F 49.6 °F 30.14 in SSW 5.9 mph 11.5 mph 44 % 0.00 in 842.0 W/m2 CLR
11:42 73.1 °F 51.1 °F 30.14 in West 1.9 mph 8.0 mph 46 % 0.00 in 854.0 W/m2 CLR
11:47 74.0 °F 50.1 °F 30.14 in WSW 0.1 mph 1.2 mph 43 % 0.00 in 858.0 W/m2 CLR
11:52 74.4 °F 49.8 °F 30.13 in West 3.9 mph 8.1 mph 42 % 0.00 in 847.0 W/m2 CLR
11:57 74.6 °F 50.6 °F 30.13 in WSW 5.0 mph 8.1 mph 43 % 0.00 in 860.0 W/m2 CLR
12:02 75.0 °F 50.3 °F 30.13 in WSW 5.0 mph 8.1 mph 42 % 0.00 in 858.0 W/m2 CLR
12:03 75.0 °F 49.0 °F 30.13 in SW 3.4 mph 8.1 mph 40 % 0.00 in 858.0 W/m2 CLR
12:08 74.7 °F 50.1 °F 30.13 in SSW 0.1 mph 4.6 mph 42 % 0.00 in 874.0 W/m2 CLR
12:13 75.4 °F 49.4 °F 30.12 in West 2.9 mph 8.1 mph 40 % 0.00 in 877.0 W/m2 CLR
12:18 75.8 °F 49.8 °F 30.12 in WSW 5.1 mph 9.2 mph 40 % 0.00 in 886.0 W/m2 CLR
12:23 76.2 °F 48.0 °F 30.12 in West 5.2 mph 9.2 mph 37 % 0.00 in 898.0 W/m2 CLR
12:28 76.8 °F 50.6 °F 30.12 in WSW 0.2 mph 3.5 mph 40 % 0.00 in 905.0 W/m2 CLR
12:33 77.0 °F 49.4 °F 30.12 in West 3.6 mph 6.9 mph 38 % 0.00 in 916.0 W/m2 CLR
12:38 78.0 °F 49.6 °F 30.12 in WNW 5.3 mph 8.1 mph 37 % 0.00 in 925.0 W/m2 CLR
12:43 77.7 °F 48.6 °F 30.12 in WSW 3.3 mph 5.8 mph 36 % 0.00 in 900.0 W/m2 CLR
12:48 77.7 °F 47.9 °F 30.11 in West 1.6 mph 8.1 mph 35 % 0.00 in 874.0 W/m2 CLR
12:53 78.7 °F 49.5 °F 30.11 in SW 0.2 mph 3.0 mph 36 % 0.00 in 791.0 W/m2 CLR
12:58 79.4 °F 46.1 °F 30.11 in SW 2.7 mph 3.5 mph 31 % 0.00 in 824.0 W/m2 CLR
13:03 79.2 °F 45.9 °F 30.11 in WNW 3.6 mph 6.9 mph 31 % 0.00 in 751.0 W/m2 CLR
13:08 79.2 °F 47.6 °F 30.11 in WSW 4.0 mph 7.0 mph 33 % 0.00 in 807.0 W/m2 CLR
13:10 79.1 °F 46.7 °F 30.11 in WSW 3.5 mph 6.9 mph 32 % 0.00 in 838.0 W/m2 CLR
13:15 79.4 °F 46.1 °F 30.11 in SW 5.8 mph 9.2 mph 31 % 0.00 in 974.0 W/m2 CLR
13:20 79.9 °F 46.6 °F 30.10 in SW 2.5 mph 4.6 mph 31 % 0.00 in 877.0 W/m2 CLR
13:25 80.1 °F 47.6 °F 30.10 in SW 5.7 mph 8.1 mph 32 % 0.00 in 972.0 W/m2 CLR
13:30 80.5 °F 47.1 °F 30.10 in West 2.1 mph 5.8 mph 31 % 0.00 in 923.0 W/m2 CLR
13:35 81.0 °F 45.7 °F 30.10 in WSW 3.3 mph 11.5 mph 29 % 0.00 in 805.0 W/m2 CLR
13:40 81.2 °F 46.8 °F 30.10 in WNW 1.7 mph 6.9 mph 30 % 0.00 in 870.0 W/m2 CLR
13:45 81.3 °F 45.1 °F 30.10 in SW 3.8 mph 5.8 mph 28 % 0.00 in 872.0 W/m2 CLR
13:51 81.6 °F 46.3 °F 30.10 in West 4.6 mph 6.9 mph 29 % 0.00 in 703.0 W/m2 CLR
13:56 81.8 °F 45.5 °F 30.10 in WSW 3.7 mph 11.0 mph 28 % 0.00 in 621.0 W/m2 FEW
14:01 81.6 °F 46.3 °F 30.10 in WSW 5.8 mph 11.5 mph 29 % 0.00 in 529.0 W/m2 FEW
14:06 81.9 °F 47.4 °F 30.09 in West 3.5 mph 5.8 mph 30 % 0.00 in 701.0 W/m2 CLR
14:11 81.5 °F 47.1 °F 30.09 in WNW 9.1 mph 10.4 mph 30 % 0.00 in 591.0 W/m2 CLR
14:16 81.6 °F 46.3 °F 30.09 in NW 5.1 mph 11.5 mph 29 % 0.00 in 703.0 W/m2 CLR
14:21 81.9 °F 47.4 °F 30.09 in West 2.1 mph 11.5 mph 30 % 0.00 in 710.0 W/m2 CLR
14:26 82.0 °F 46.6 °F 30.10 in West 6.2 mph 10.4 mph 29 % 0.00 in 728.0 W/m2 CLR
14:31 81.9 °F 47.4 °F 30.10 in West 2.2 mph 8.1 mph 30 % 0.00 in 547.0 W/m2 CLR
14:36 81.9 °F 47.4 °F 30.09 in SW 0.1 mph 6.9 mph 30 % 0.00 in 671.0 W/m2 FEW
14:41 82.2 °F 45.8 °F 30.09 in WSW 4.2 mph 12.0 mph 28 % 0.00 in 844.0 W/m2 CLR
14:46 82.8 °F 47.3 °F 30.09 in West 0.4 mph 6.9 mph 29 % 0.00 in 874.0 W/m2 CLR
14:51 83.5 °F 47.0 °F 30.09 in SW 7.1 mph 14.0 mph 28 % 0.00 in 728.0 W/m2 CLR
14:56 83.2 °F 45.7 °F 30.09 in West 4.7 mph 11.5 mph 27 % 0.00 in 816.0 W/m2 CLR
15:01 83.3 °F 43.8 °F 30.09 in West 7.6 mph 15.0 mph 25 % 0.00 in 831.0 W/m2 CLR
15:06 83.5 °F 45.0 °F 30.09 in WNW 3.9 mph 10.4 mph 26 % 0.00 in 478.0 W/m2 FEW
15:11 82.7 °F 46.3 °F 30.09 in WNW 3.6 mph 15.0 mph 28 % 0.00 in 260.0 W/m2 SCT
15:16 82.0 °F 46.6 °F 30.09 in WSW 5.1 mph 11.5 mph 29 % 0.00 in 338.0 W/m2 BKN
15:21 81.8 °F 47.3 °F 30.08 in SSW 1.3 mph 13.8 mph 30 % 0.00 in 415.0 W/m2 SCT
15:26 82.0 °F 46.6 °F 30.08 in West 4.8 mph 11.5 mph 29 % 0.00 in 633.0 W/m2 CLR
15:31 82.6 °F 46.2 °F 30.08 in West 9.8 mph 15.0 mph 28 % 0.00 in 745.0 W/m2 CLR
15:36 82.9 °F 47.4 °F 30.08 in West 8.5 mph 15.0 mph 29 % 0.00 in 633.0 W/m2 CLR
15:41 82.9 °F 46.4 °F 30.08 in West 6.8 mph 11.5 mph 28 % 0.00 in 719.0 W/m2 CLR
15:46 83.3 °F 46.8 °F 30.07 in SW 7.1 mph 11.5 mph 28 % 0.00 in 693.0 W/m2 CLR
15:51 83.2 °F 45.7 °F 30.07 in SW 7.4 mph 12.7 mph 27 % 0.00 in 455.0 W/m2 CLR
15:56 83.2 °F 46.7 °F 30.07 in SSW 7.1 mph 11.5 mph 28 % 0.00 in 564.0 W/m2 CLR
16:01 83.1 °F 46.6 °F 30.07 in WSW 6.9 mph 13.8 mph 28 % 0.00 in 596.0 W/m2 CLR
16:06 83.0 °F 47.5 °F 30.07 in SW 1.0 mph 3.5 mph 29 % 0.00 in 322.0 W/m2 FEW
16:11 83.0 °F 47.5 °F 30.07 in SW 6.1 mph 11.5 mph 29 % 0.00 in 621.0 W/m2 CLR
16:16 83.1 °F 47.5 °F 30.07 in WSW 9.8 mph 15.0 mph 29 % 0.00 in 561.0 W/m2 CLR
16:21 82.9 °F 48.3 °F 30.06 in WSW 3.9 mph 7.0 mph 30 % 0.00 in 285.0 W/m2 CLR
16:26 82.7 °F 48.1 °F 30.06 in WSW 3.1 mph 9.2 mph 30 % 0.00 in 424.0 W/m2 CLR
16:31 83.0 °F 48.4 °F 30.06 in SW 3.7 mph 8.1 mph 30 % 0.00 in 476.0 W/m2 CLR
16:36 82.9 °F 48.3 °F 30.06 in SW 3.1 mph 9.2 mph 30 % 0.00 in 489.0 W/m2 CLR
16:41 82.6 °F 48.9 °F 30.06 in Calm   3.5 mph 31 % 0.00 in 299.0 W/m2 SCT
16:46 82.8 °F 49.1 °F 30.06 in SW 2.6 mph 9.2 mph 31 % 0.00 in 450.0 W/m2 CLR
16:51 83.0 °F 49.2 °F 30.06 in WSW 4.7 mph 10.0 mph 31 % 0.00 in 457.0 W/m2 CLR
16:56 83.1 °F 49.3 °F 30.06 in WSW 2.0 mph 9.2 mph 31 % 0.00 in 418.0 W/m2 CLR
17:01 82.9 °F 49.2 °F 30.06 in WSW 1.2 mph 6.9 mph 31 % 0.00 in 390.0 W/m2 CLR
17:06 82.9 °F 50.0 °F 30.06 in WNW 1.5 mph 8.1 mph 32 % 0.00 in 418.0 W/m2 CLR
17:11 83.2 °F 48.5 °F 30.06 in West 1.9 mph 8.1 mph 30 % 0.00 in 390.0 W/m2 CLR
17:13 83.2 °F 48.5 °F 30.06 in WNW 4.5 mph 6.9 mph 30 % 0.00 in 352.0 W/m2 CLR
17:17 83.0 °F 48.4 °F 30.06 in WSW 4.3 mph 11.5 mph 30 % 0.00 in 388.0 W/m2 CLR
17:22 82.8 °F 47.3 °F 30.06 in WSW 4.4 mph 10.4 mph 29 % 0.00 in 355.0 W/m2 CLR
17:27 82.8 °F 47.3 °F 30.06 in SW 2.7 mph 6.9 mph 29 % 0.00 in 294.0 W/m2 CLR
17:32 82.8 °F 47.3 °F 30.06 in WSW 1.0 mph 8.1 mph 29 % 0.00 in 272.0 W/m2 CLR
17:37 82.7 °F 47.2 °F 30.06 in WSW 5.1 mph 9.2 mph 29 % 0.00 in 244.0 W/m2 FEW
17:42 82.5 °F 46.1 °F 30.06 in SW 3.7 mph 5.8 mph 28 % 0.00 in 243.0 W/m2 CLR
17:47 82.5 °F 47.0 °F 30.06 in West 2.4 mph 6.0 mph 29 % 0.00 in 255.0 W/m2 CLR
17:52 82.3 °F 46.9 °F 30.06 in WSW 0.2 mph 6.9 mph 29 % 0.00 in 172.0 W/m2 FEW
17:57 82.0 °F 47.5 °F 30.06 in SW 1.8 mph 3.0 mph 30 % 0.00 in 193.0 W/m2 FEW
18:02 81.9 °F 47.4 °F 30.06 in SSW 0.4 mph 3.5 mph 30 % 0.00 in 142.0 W/m2 SCT
18:07 81.7 °F 48.1 °F 30.06 in WSW 0.7 mph 3.5 mph 31 % 0.00 in 181.0 W/m2 FEW
18:12 81.7 °F 48.1 °F 30.06 in WSW 1.2 mph 2.3 mph 31 % 0.00 in 225.0 W/m2 CLR
18:17 81.7 °F 48.1 °F 30.06 in WSW 2.6 mph 4.6 mph 31 % 0.00 in 211.0 W/m2 CLR
18:22 81.8 °F 48.2 °F 30.05 in Calm     31 % 0.00 in 142.0 W/m2 FEW
18:27 81.7 °F 48.1 °F 30.05 in WSW 1.2 mph 5.0 mph 31 % 0.00 in 134.0 W/m2 CLR
18:32 81.6 °F 48.0 °F 30.05 in Calm   2.3 mph 31 % 0.00 in 100.0 W/m2 FEW
18:37 81.5 °F 47.9 °F 30.05 in Calm     31 % 0.00 in 74.0 W/m2 SCT
18:42 81.3 °F 46.9 °F 30.05 in Calm   1.0 mph 30 % 0.00 in 70.0 W/m2 SCT
18:48 81.0 °F 46.6 °F 30.05 in WSW 0.5 mph 3.5 mph 30 % 0.00 in 65.0 W/m2 SCT
18:53 80.8 °F 47.3 °F 30.05 in Calm   1.2 mph 31 % 0.00 in 54.0 W/m2 SCT
18:58 80.6 °F 47.2 °F 30.05 in Calm     31 % 0.00 in 40.0 W/m2 SCT
19:03 80.3 °F 46.9 °F 30.05 in Calm     31 % 0.00 in 32.0 W/m2 BKN
19:08 80.1 °F 47.6 °F 30.05 in Calm     32 % 0.00 in 25.0 W/m2 BKN
19:13 79.8 °F 47.3 °F 30.05 in Calm     32 % 0.00 in 19.0 W/m2 BKN
19:18 79.3 °F 47.7 °F 30.05 in Calm     33 % 0.00 in 18.0 W/m2 BKN
19:23 79.1 °F 47.5 °F 30.05 in Calm     33 % 0.00 in 16.0 W/m2 SCT
19:28 78.9 °F 47.3 °F 30.05 in SW 0.4 mph 1.2 mph 33 % 0.00 in 9.0 W/m2 SCT
19:33 78.6 °F 47.1 °F 30.05 in Calm     33 % 0.00 in 7.0 W/m2 SCT
19:38 78.3 °F 46.0 °F 30.05 in SSW 0.9 mph 3.5 mph 32 % 0.00 in 5.0 W/m2 SCT
19:43 78.0 °F 45.7 °F 30.05 in Calm     32 % 0.00 in 0.0 W/m2 SCT
19:48 77.7 °F 45.5 °F 30.05 in Calm   1.2 mph 32 % 0.00 in 0.0 W/m2 SCT
19:53 77.4 °F 45.2 °F 30.05 in Calm     32 % 0.00 in 0.0 W/m2 SCT
19:58 77.1 °F 45.0 °F 30.05 in Calm     32 % 0.00 in 0.0 W/m2 SCT
20:03 76.8 °F 44.7 °F 30.06 in Calm     32 % 0.00 in 0.0 W/m2 SCT
20:08 76.6 °F 44.5 °F 30.06 in Calm     32 % 0.00 in 0.0 W/m2 SCT
20:13 76.4 °F 45.2 °F 30.06 in Calm     33 % 0.00 in 0.0 W/m2 SCT
20:18 76.1 °F 44.9 °F 30.06 in Calm     33 % 0.00 in 0.0 W/m2 SCT
20:23 75.7 °F 44.5 °F 30.06 in Calm     33 % 0.00 in 0.0 W/m2 SCT
20:28 75.1 °F 45.6 °F 30.07 in Calm     35 % 0.00 in 0.0 W/m2 SCT
20:33 74.6 °F 45.9 °F 30.07 in Calm     36 % 0.00 in 0.0 W/m2 SCT
20:38 74.6 °F 45.1 °F 30.07 in Calm     35 % 0.00 in 0.0 W/m2 SCT
20:43 74.8 °F 46.1 °F 30.07 in Calm     36 % 0.00 in 0.0 W/m2 SCT
20:48 74.7 °F 46.0 °F 30.07 in Calm     36 % 0.00 in 0.0 W/m2 SCT
20:53 74.5 °F 45.8 °F 30.07 in Calm     36 % 0.00 in 0.0 W/m2 SCT
20:58 73.3 °F 46.2 °F 30.07 in Calm     38 % 0.00 in 0.0 W/m2 SCT
21:03 72.4 °F 46.7 °F 30.08 in Calm     40 % 0.00 in 0.0 W/m2 SCT
21:08 71.1 °F 47.5 °F 30.08 in NNW 3.6 mph 5.0 mph 43 % 0.00 in 0.0 W/m2 SCT
21:13 70.3 °F 47.9 °F 30.08 in Calm   1.2 mph 45 % 0.00 in 0.0 W/m2 SCT
21:18 70.2 °F 47.3 °F 30.08 in Calm     44 % 0.00 in 0.0 W/m2 SCT
21:23 71.1 °F 48.1 °F 30.09 in Calm     44 % 0.00 in 0.0 W/m2 SCT
21:28 71.3 °F 48.3 °F 30.09 in Calm   1.2 mph 44 % 0.00 in 0.0 W/m2 SCT
21:33 72.2 °F 48.5 °F 30.09 in Calm     43 % 0.00 in 0.0 W/m2 SCT
21:38 72.4 °F 48.6 °F 30.09 in Calm     43 % 0.00 in 0.0 W/m2 SCT
21:43 72.3 °F 48.5 °F 30.09 in Calm     43 % 0.00 in 0.0 W/m2 SCT
21:48 72.0 °F 48.3 °F 30.09 in Calm     43 % 0.00 in 0.0 W/m2 SCT
21:53 71.7 °F 48.0 °F 30.09 in Calm     43 % 0.00 in 0.0 W/m2 SCT
21:58 70.8 °F 48.4 °F 30.10 in Calm     45 % 0.00 in 0.0 W/m2 SCT
22:03 70.6 °F 48.2 °F 30.10 in Calm     45 % 0.00 in 0.0 W/m2 SCT
22:08 70.0 °F 48.3 °F 30.10 in Calm     46 % 0.00 in 0.0 W/m2 SCT
22:13 69.6 °F 47.9 °F 30.10 in Calm     46 % 0.00 in 0.0 W/m2 SCT
22:18 69.2 °F 48.7 °F 30.10 in Calm     48 % 0.00 in 0.0 W/m2 SCT
22:23 69.1 °F 49.1 °F 30.10 in Calm     49 % 0.00 in 0.0 W/m2 SCT
22:28 68.2 °F 49.4 °F 30.10 in Calm     51 % 0.00 in 0.0 W/m2 SCT
22:33 68.0 °F 49.2 °F 30.10 in Calm     51 % 0.00 in 0.0 W/m2 SCT
22:38 67.9 °F 49.1 °F 30.10 in Calm     51 % 0.00 in 0.0 W/m2 SCT
22:43 68.1 °F 48.8 °F 30.10 in Calm     50 % 0.00 in 0.0 W/m2 SCT
22:48 68.2 °F 48.8 °F 30.11 in Calm     50 % 0.00 in 0.0 W/m2 SCT
22:53 67.0 °F 49.3 °F 30.10 in Calm     53 % 0.00 in 0.0 W/m2 SCT
22:58 66.3 °F 49.6 °F 30.11 in Calm     55 % 0.00 in 0.0 W/m2 SCT
23:03 66.4 °F 49.7 °F 30.11 in Calm     55 % 0.00 in 0.0 W/m2 SCT
23:08 66.2 °F 50.0 °F 30.11 in Calm     56 % 0.00 in 0.0 W/m2 SCT
23:13 65.6 °F 50.0 °F 30.11 in Calm     57 % 0.00 in 0.0 W/m2 SCT
23:18 65.4 °F 50.2 °F 30.11 in Calm     58 % 0.00 in 0.0 W/m2 SCT
23:23 65.3 °F 50.1 °F 30.11 in Calm     58 % 0.00 in 0.0 W/m2 SCT
23:28 65.4 °F 49.8 °F 30.11 in Calm     57 % 0.00 in 0.0 W/m2 SCT
23:33 65.1 °F 50.4 °F 30.11 in Calm     59 % 0.00 in 0.0 W/m2 SCT
23:38 65.1 °F 50.0 °F 30.11 in Calm     58 % 0.00 in 0.0 W/m2 SCT
23:43 65.0 °F 49.9 °F 30.11 in Calm     58 % 0.00 in 0.0 W/m2 SCT
23:48 64.5 °F 50.3 °F 30.11 in Calm     60 % 0.00 in 0.0 W/m2 SCT
23:53 64.8 °F 50.1 °F 30.11 in Calm     59 % 0.00 in 0.0 W/m2 SCT
23:58 65.1 °F 49.5 °F 30.11 in Calm     57 % 0.00 in 0.0 W/m2 SCT
Air Products Campus Weather
Compliments of Weather Underground - 3.5 mb